Location: Bédeille
(43.0872°N, 1.1041°E)
Time: 02:14:55
(UTC+00:00)

Cosmos 1850 Rocket - Pass Details

Date: 03 February 2023
Orbit: 753 x 785 km, 74.0° (Epoch: 27 March)

Event Time Altitude Azimuth Distance (km) Brightness Sun altitude
Rises 18:21:28 0° 178° (S) 3,203 7.3 -13.3°
Reaches altitude 10° 18:23:57 10° 170° (S) 2,278 6.5 -13.7°
Maximum altitude 18:28:43 40° 103° (ESE) 1,113 4.4 -14.6°
Enters shadow 18:32:43 14° 39° (NE) 2,000 5.7 -15.3°
